Location: Caltech
(34.1382°N, 118.1253°W)
Time: 07:06:20
(UTC-07:00)

SEDSat Delta rocket - Visible Passes

Search period start: 26 July 2016 00:00
Search period end: 05 August 2016 00:00
Orbit: 533 x 1003 km, 31.4° (Epoch: 25 July)

Date Brightness Start Highest point End Pass type
(mag) Time Alt. Az. Time Alt. Az. Time Alt. Az.
26 Jul 4.8 20:26:53 10° S 20:29:04 14° SSE 20:31:11 10° SE visible
26 Jul 5.0 22:10:49 10° SW 22:11:46 16° SW 22:11:46 16° SW visible
27 Jul 3.5 21:30:38 10° SW 21:34:25 34° SSE 21:34:25 34° SSE visible
28 Jul 3.7 20:50:24 10° SW 20:54:24 31° SSE 20:56:52 17° ESE visible
28 Jul 5.2 22:36:04 10° WSW 22:37:02 16° WSW 22:37:02 16° WSW visible
29 Jul 3.3 21:55:47 10° WSW 21:59:20 48° SSW 21:59:20 48° SSW visible
30 Jul 3.0 21:15:26 10° WSW 21:19:52 54° S 21:21:31 32° ESE visible
30 Jul 5.7 23:01:38 10° W 23:01:40 10° W 23:01:40 10° W visible
31 Jul 3.3 20:35:02 10° WSW 20:39:41 52° S 20:43:36 11° E visible
31 Jul 4.3 22:21:18 10° W 22:23:45 30° WSW 22:23:45 30° WSW visible
01 Aug 2.9 21:40:54 10° W 21:45:26 61° S 21:45:45 58° SSE visible
02 Aug 3.1 21:00:27 10° W 21:05:14 63° S 21:07:42 24° ESE visible
02 Aug 5.4 22:46:59 10° W 22:47:51 15° W 22:47:51 15° W visible
03 Aug 3.3 20:19:57 10° W 20:25:00 64° S 20:29:25 10° E visible
03 Aug 4.0 22:06:33 10° W 22:09:46 35° SW 22:09:46 35° SW visible
04 Aug 3.4 21:26:03 10° W 21:30:44 49° SSW 21:31:40 42° SSE visible
